Location: Newark
(54.4333°N, 18.5500°E)
Time: 13:51:59
(UTC+00:00)

Envisat - Pass Details

Date: 11 December 2019
Orbit: 764 x 766 km, 98.1° (Epoch: 23 January)

Event Time Altitude Azimuth Distance (km) Brightness Sun altitude
Rises 17:00:40 0° 181° (S) 3,224 6.4 -21.6°
Reaches altitude 10° 17:03:03 10° 187° (S) 2,302 5.7 -22.0°
Maximum altitude 17:07:56 48° 261° (W) 1,005 4.0 -22.7°
Drops below altitude 10° 17:12:53 10° 336° (NNW) 2,318 5.7 -23.4°
Sets 17:15:17 0° 342° (NNW) 3,249 6.4 -23.7°
